CW4141 Weather Reports


Display with metric or nautical units.
time (UTC)temp
F
wind
direction
speed
MPH
gust
MPH
rain 1hr
in
rain 24hr
in
rain mn
in
humidity
%
barometer
mb
20260509183052 83 222 1.0 6.0 0.00 0.00 0.00 35 1016.3
20260509183044 83 223 2.0 6.0 0.00 0.00 0.00 35 1010.5
20260509181602 82 0 1.0 5.0 0.00 0.00 0.00 35 1016.4
20260509181539 82 145 1.0 5.0 0.00 0.00 0.00 36 1010.6
20260509180059 81 0 0.0 3.0 0.00 0.00 0.00 43 1016.4
20260509180035 81 227 0.0 3.0 0.00 0.00 0.00 44 1010.6
20260509174601 79 228 0.0 0.0 0.00 0.00 0.00 45 1016.5
20260509174529 79 309 0.0 0.0 0.00 0.00 0.00 46 1010.7
20260509173107 78 0 0.0 0.0 0.00 0.00 0.00 47 1016.4
20260509173025 78 309 0.0 0.0 0.00 0.00 0.00 49 1010.7
20260509171603 76 0 0.0 0.0 0.00 0.00 0.00 52 1016.4
20260509171520 76 311 0.0 0.0 0.00 0.00 0.00 53 1010.7
20260509170052 74 0 0.0 0.0 0.00 0.00 0.00 59 1016.5
20260509170017 74 311 0.0 0.0 0.00 0.00 0.00 58 1010.8
20260509164610 72 0 0.0 0.0 0.00 0.00 0.00 61 1016.6
20260509164512 72 311 0.0 0.0 0.00 0.00 0.00 62 1010.9
20260509163048 69 0 0.0 0.0 0.00 0.00 0.00 68 1016.5
20260509163008 69 311 0.0 0.0 0.00 0.00 0.00 69 1010.9
20260509161551 66 0 0.0 0.0 0.00 0.00 0.00 74 1016.5
20260509161503 66 311 0.0 0.0 0.00 0.00 0.00 75 1011.0
20260509160058 63 311 0.0 0.0 0.00 0.00 0.00 83 1011.0
20260509154600 60 0 0.0 2.0 0.00 0.00 0.00 88 1016.6
20260509154553 60 311 0.0 1.0 0.00 0.00 0.00 88 1011.2
20260509153053 58 0 0.0 0.0 0.00 0.00 0.00 89 1016.8
20260509153048 58 311 0.0 0.0 0.00 0.00 0.00 90 1011.2
20260509151555 56 0 0.0 1.0 0.00 0.00 0.00 90 1016.8
20260509151545 56 311 0.0 0.0 0.00 0.00 0.00 91 1011.3
20260509150052 55 0 0.0 2.0 0.00 0.00 0.00 90 1016.9
20260509150045 55 311 0.0 2.0 0.00 0.00 0.00 90 1011.3
20260509144609 54 0 0.0 1.0 0.00 0.00 0.00 90 1016.9
20260509144545 54 311 0.0 1.0 0.00 0.00 0.00 91 1011.3
20260509143054 54 0 0.0 2.0 0.00 0.00 0.00 90 1016.9
20260509143044 54 311 0.0 2.0 0.00 0.00 0.00 90 1011.3
20260509141554 53 311 0.0 2.0 0.00 0.00 0.00 89 1016.9
20260509141542 53 311 0.0 2.0 0.00 0.00 0.00 90 1011.2
20260509140105 52 0 0.0 0.0 0.00 0.00 0.00 88 1016.8
20260509140044 52 313 0.0 0.0 0.00 0.00 0.00 89 1011.1
20260509134556 52 0 0.0 0.0 0.00 0.00 0.00 87 1016.8
20260509134539 52 313 0.0 0.0 0.00 0.00 0.00 87 1010.9
20260509133058 51 0 0.0 0.0 0.00 0.00 0.00 86 1016.7
20260509133036 51 313 0.0 0.0 0.00 0.00 0.00 86 1010.8
20260509131557 51 0 0.0 0.0 0.00 0.00 0.00 85 1016.7
20260509131534 51 55 0.0 0.0 0.00 0.00 0.00 86 1010.7
20260509130106 51 0 0.0 0.0 0.00 0.00 0.00 85 1016.6
20260509130049 51 61 0.0 0.0 0.00 0.00 0.00 85 1010.7
20260509124552 52 0 0.0 0.0 0.00 0.00 0.00 85 1016.5
20260509124537 52 146 0.0 0.0 0.00 0.00 0.00 85 1010.7
20260509123054 52 0 0.0 0.0 0.00 0.00 0.00 85 1016.5
20260509123029 52 140 0.0 0.0 0.00 0.00 0.00 85 1010.6
20260509121604 52 0 0.0 0.0 0.00 0.00 0.00 85 1016.5
20260509121529 52 140 0.0 0.0 0.00 0.00 0.00 85 1010.7
20260509120054 53 0 0.0 0.0 0.00 0.00 0.00 84 1016.5
20260509120032 53 140 0.0 0.0 0.00 0.00 0.00 85 1010.6
20260509114553 53 0 0.0 0.0 0.00 0.00 0.00 84 1016.4
20260509114524 53 140 0.0 0.0 0.00 0.00 0.00 85 1010.7
20260509113057 53 0 0.0 0.0 0.00 0.00 0.00 84 1016.5
20260509113023 53 140 0.0 0.0 0.00 0.00 0.00 85 1010.7
20260509111603 54 0 0.0 0.0 0.00 0.00 0.00 84 1016.5
20260509111522 54 140 0.0 0.0 0.00 0.00 0.00 84 1010.7
20260509110054 54 0 0.0 0.0 0.00 0.00 0.00 84 1016.5
20260509110021 54 140 0.0 0.0 0.00 0.00 0.00 84 1010.7
20260509104551 54 0 0.0 0.0 0.00 0.00 0.00 84 1016.6
20260509104518 54 140 0.0 0.0 0.00 0.00 0.00 84 1010.7
20260509103051 55 0 0.0 0.0 0.00 0.00 0.00 83 1016.7
20260509103018 55 140 0.0 0.0 0.00 0.00 0.00 84 1010.8
20260509101550 55 0 0.0 0.0 0.00 0.00 0.00 84 1016.8
20260509101515 55 140 0.0 0.0 0.00 0.00 0.00 84 1010.8
20260509100052 55 0 0.0 0.0 0.00 0.00 0.00 83 1016.7
20260509100020 55 140 0.0 0.0 0.00 0.00 0.00 83 1010.8
20260509094552 55 0 0.0 0.0 0.00 0.00 0.00 82 1016.7
20260509094512 55 140 0.0 0.0 0.00 0.00 0.00 83 1010.9
20260509093054 56 0 0.0 0.0 0.00 0.00 0.00 82 1016.7
20260509093010 56 140 0.0 0.0 0.00 0.00 0.00 82 1011.1
20260509091554 56 0 0.0 0.0 0.00 0.00 0.00 82 1016.9
20260509091508 56 140 0.0 0.0 0.00 0.00 0.00 82 1011.2
20260509090104 57 0 0.0 0.0 0.00 0.00 0.00 82 1017.1
20260509090008 57 140 0.0 0.0 0.00 0.00 0.00 83 1011.2
20260509084602 57 0 0.0 0.0 0.00 0.00 0.00 82 1017.2
20260509084505 57 140 0.0 0.0 0.00 0.00 0.00 82 1011.3
20260509083057 57 0 0.0 0.0 0.00 0.00 0.00 82 1017.3
20260509083006 57 140 0.0 0.0 0.00 0.00 0.00 82 1011.4
20260509081551 58 0 0.0 0.0 0.00 0.00 0.00 81 1017.4
20260509081504 58 140 0.0 0.0 0.00 0.00 0.00 82 1011.7
20260509080105 58 140 0.0 0.0 0.00 0.00 0.00 82 1011.8
20260509080059 58 0 0.0 0.0 0.00 0.00 0.00 81 1017.6
20260509074556 59 0 0.0 0.0 0.00 0.00 0.00 81 1017.7
20260509073054 59 140 0.0 0.0 0.00 0.00 0.00 81 1011.8
20260509073052 59 0 0.0 0.0 0.00 0.00 0.00 81 1017.8
20260509071556 60 140 0.0 0.0 0.00 0.00 0.00 82 1011.9
20260509071552 60 0 0.0 0.0 0.00 0.00 0.00 81 1017.7
20260509070059 60 140 0.0 0.0 0.00 0.00 0.00 81 1011.9
20260509070054 60 0 0.0 0.0 0.00 0.00 0.00 80 1017.9
20260509064553 60 140 0.0 0.0 0.00 0.00 0.00 80 1012.0
20260509063101 61 0 0.0 0.0 0.00 0.00 0.00 79 1018.0
20260509063050 61 140 0.0 0.0 0.00 0.00 0.00 79 1012.0
20260509061605 61 140 0.0 0.0 0.00 0.00 0.00 79 1012.0
20260509061558 61 0 0.0 0.0 0.00 0.00 0.00 78 1018.0
20260509060104 61 140 0.0 0.0 0.00 0.00 0.00 79 1012.0
20260509060100 61 0 0.0 0.0 0.00 0.00 0.00 78 1018.0
20260509054611 62 0 0.0 0.0 0.00 0.00 0.00 77 1017.9
20260509054552 62 140 0.0 0.0 0.00 0.00 0.00 78 1012.1
20260509053133 62 0 0.0 1.0 0.00 0.00 0.00 77 1018.0
20260509053048 62 140 0.0 1.0 0.00 0.00 0.00 77 1012.2
20260509051550 63 0 0.0 2.0 0.00 0.00 0.00 75 1018.1
20260509051547 63 140 0.0 2.0 0.00 0.00 0.00 76 1012.2
20260509050057 63 0 0.0 1.0 0.00 0.00 0.00 74 1018.0
20260509044557 64 140 0.0 1.0 0.00 0.00 0.00 73 1012.1
20260509044550 64 0 0.0 1.0 0.00 0.00 0.00 73 1018.1
20260509043104 64 0 0.0 1.0 0.00 0.00 0.00 71 1018.0
20260509043047 64 140 0.0 1.0 0.00 0.00 0.00 72 1011.9
20260509041603 65 0 0.0 1.0 0.00 0.00 0.00 70 1017.8
20260509041546 65 140 0.0 1.0 0.00 0.00 0.00 70 1011.8
20260509040105 66 0 0.0 1.0 0.00 0.00 0.00 68 1017.6
20260509040045 66 140 0.0 1.0 0.00 0.00 0.00 69 1011.8
20260509034603 66 0 0.0 0.0 0.00 0.00 0.00 66 1017.6
20260509034545 66 140 0.0 0.0 0.00 0.00 0.00 67 1011.7
20260509033056 67 0 0.0 1.0 0.00 0.00 0.00 64 1017.4
20260509033045 67 140 0.0 1.0 0.00 0.00 0.00 65 1011.6
20260509031603 68 0 0.0 3.0 0.00 0.00 0.00 63 1017.4
20260509031547 68 140 0.0 3.0 0.00 0.00 0.00 64 1011.3
20260509030056 68 0 0.0 3.0 0.00 0.00 0.00 62 1017.2
20260509030044 68 140 0.0 3.0 0.00 0.00 0.00 63 1011.2
20260509024552 69 140 0.0 4.0 0.00 0.00 0.00 60 1017.1
20260509024542 69 140 1.0 4.0 0.00 0.00 0.00 61 1011.1
20260509023053 70 145 1.0 5.0 0.00 0.00 0.00 59 1010.7
20260509023051 70 145 1.0 5.0 0.00 0.00 0.00 58 1016.8
20260509021554 71 142 1.0 6.0 0.00 0.00 0.00 56 1016.6
20260509021541 71 142 1.0 5.0 0.00 0.00 0.00 57 1010.7
20260509020056 72 144 1.0 8.0 0.00 0.00 0.00 55 1016.5
20260509020041 72 144 1.0 7.0 0.00 0.00 0.00 55 1010.6
20260509014600 74 216 2.0 6.0 0.00 0.00 0.00 54 1016.3
20260509014544 74 216 2.0 6.0 0.00 0.00 0.00 55 1010.3
20260509013055 75 146 1.0 4.0 0.00 0.00 0.00 53 1016.0
20260509013041 75 149 1.0 4.0 0.00 0.00 0.00 53 1010.3
20260509011601 75 202 0.0 5.0 0.00 0.00 0.00 52 1016.2
20260509011539 75 202 1.0 5.0 0.00 0.00 0.00 53 1010.2
20260509010055 76 159 1.0 6.0 0.00 0.00 0.00 51 1016.2
20260509010039 76 158 2.0 5.0 0.00 0.00 0.00 51 1010.1
20260509004549 77 182 2.0 7.0 0.00 0.00 0.00 49 1016.1
20260509004540 77 134 3.0 8.0 0.00 0.00 0.00 50 1010.2
20260509003053 78 0 2.0 8.0 0.00 0.00 0.00 49 1016.1
20260509003048 78 207 2.0 7.0 0.00 0.00 0.00 49 1010.1
20260509001550 79 194 2.0 9.0 0.00 0.00 0.00 48 1016.1
20260509001536 79 194 3.0 8.0 0.00 0.00 0.00 48 1010.1
20260509000050 80 225 0.0 9.0 0.00 0.00 0.00 45 1016.3
20260509000041 80 225 1.0 8.0 0.00 0.00 0.00 46 1010.2
20260508234551 82 0 1.0 8.0 0.00 0.00 0.00 44 1016.2
20260508234539 82 219 1.0 8.0 0.00 0.00 0.00 44 1010.1
20260508233047 83 0 0.0 4.0 0.00 0.00 0.00 44 1016.1
20260508233036 83 128 0.0 3.0 0.00 0.00 0.00 44 1010.1
20260508231552 84 0 0.0 8.0 0.00 0.00 0.00 42 1016.2
20260508231534 84 215 0.0 6.0 0.00 0.00 0.00 43 1010.1
20260508230058 86 0 0.0 6.0 0.00 0.00 0.00 41 1016.3
20260508230040 86 228 0.0 6.0 0.00 0.00 0.00 42 1010.1
20260508224553 88 130 0.0 4.0 0.00 0.00 0.00 39 1016.3
20260508224535 88 175 0.0 4.0 0.00 0.00 0.00 39 1010.1
20260508223056 89 0 0.0 6.0 0.00 0.00 0.00 38 1016.3
20260508223037 89 181 0.0 6.0 0.00 0.00 0.00 38 1010.3
20260508221553 89 0 0.0 5.0 0.00 0.00 0.00 37 1016.5
20260508221534 89 163 0.0 5.0 0.00 0.00 0.00 38 1010.6
20260508220056 90 0 0.0 7.0 0.00 0.00 0.00 36 1016.6
20260508220029 90 209 0.0 6.0 0.00 0.00 0.00 37 1010.7
20260508214550 90 0 0.0 4.0 0.00 0.00 0.00 35 1016.8
20260508214529 90 225 0.0 5.0 0.00 0.00 0.00 36 1010.8
20260508213052 90 0 0.0 5.0 0.00 0.00 0.00 34 1016.9
20260508213028 90 200 0.0 3.0 0.00 0.00 0.00 35 1011.0
20260508211553 90 0 0.0 5.0 0.00 0.00 0.00 36 1017.0
20260508211526 90 193 0.0 5.0 0.00 0.00 0.00 36 1011.2
20260508210054 90 0 0.0 4.0 0.00 0.00 0.00 35 1017.2
20260508210025 90 216 0.0 4.0 0.00 0.00 0.00 36 1011.2
20260508204551 89 0 0.0 1.0 0.00 0.00 0.00 35 1017.3
20260508204524 89 159 0.0 1.0 0.00 0.00 0.00 35 1011.3
20260508203057 88 0 0.0 0.0 0.00 0.00 0.00 35 1017.5
20260508203020 88 159 0.0 0.0 0.00 0.00 0.00 36 1011.7
20260508201550 87 0 0.0 2.0 0.00 0.00 0.00 40 1017.6
20260508201522 86 158 0.0 1.0 0.00 0.00 0.00 41 1011.7
20260508200056 86 0 0.0 6.0 0.00 0.00 0.00 39 1017.7
20260508200019 86 157 0.0 5.0 0.00 0.00 0.00 39 1012.0
20260508194554 85 0 0.0 2.0 0.00 0.00 0.00 41 1018.0
20260508194510 85 157 0.0 2.0 0.00 0.00 0.00 43 1012.2
20260508193054 84 0 0.0 1.0 0.00 0.00 0.00 45 1018.1
20260508193014 84 179 0.0 1.0 0.00 0.00 0.00 45 1012.3
20260508191556 83 0 0.0 0.0 0.00 0.00 0.00 46 1018.3
20260508191501 83 167 0.0 0.0 0.00 0.00 0.00 48 1012.7
20260508190058 81 166 0.0 1.0 0.00 0.00 0.00 46 1012.8
20260508184558 80 0 0.0 4.0 0.00 0.00 0.00 49 1018.4
20260508184554 80 167 0.0 1.0 0.00 0.00 0.00 50 1012.8